Weather in Dolni Becva

Czech Republic     49°27′19″N   18°11′31″E
temp.,
°C
wind,
m/s
gust,
m/s
humid.,
%
clouds,
%
prec.,
mm/h
press.,
hPa
HPBL,
m
28 november, sun
sun2801:000s1399100 0.6 999130
04:00+1wsw0199100 0.0 99894
07:00+1se1298100 0.0 99784
10:00+3ene1295100 0.0 996136
13:00+2ne2499100 2.4 993265
16:00+1nw22100100 6.1 99269
19:00−1nw1299100 12.6 993110
22:00−1nw1298100 0.8 995127
29 november, mon
mon2901:00−2wsw1199100 1.2 99688
04:00−2nne269888 0.5 997524
07:00−4nne119997 0.8 99968
10:00−2wnw129196 0.3 1000340
13:00−2wsw348986 0.4 1001506
16:00−3w389397 0.1 1003659
19:00−3w389599 0.3 1005609
22:00−3w3997100 0.7 1006699
30 november, tue
tue3001:00−3wsw259799 2.2 1008373
04:00−3w3996100 1.0 1009670
07:00−5wsw259892 1.6 1012212
10:00−4sw259490 0.1 1013434
13:00−2sw3891100 0.2 1011811
16:00−2sw61394100 0.4 10081026
19:00−2sw51496100 1.6 10061152
22:00−1sw41297100 3.3 1005953
1 december, wed
wed101:000w41398100 5.1 1006992
04:000wsw31399100 1.0 1007941
07:000sw210100100 1.4 1008690
10:00+1ssw36100100 0.9 1008378
13:00+1s37100100 1.6 1007326
16:00+1s412100100 0.3 1006653
19:00+2ssw5159756 0.8 1004648
22:00+1s4138918 0.0 1003415
2 december, thu
thu201:00−1sse4109419 0.0 1002262
04:00+1s3119899 0.2 1002504
07:00+1s399896 0.6 1001319
10:00+1s310100100 0.4 1001495
13:00+1sse24100100 0.5 1000230
16:00+1ssw24100100 1.1 1000318
19:00+1ssw2298100 1.3 1000132
22:00+1sw11100100 0.1 100036